Wind_Speed
17 18 20 21 22 24 25 26 26 30 35 38 41 42 43 43 42 41 40 39 38 36 34 34 32 33 34 35 35 36 38 39 41 43 44 45 46 46 44 43 42 41 40 39
20 22 22 22 23 23 24 23 23 23 26 29 31 33 34 35 36 37 37 38 38 38 38 37 37 36 36 36 37 39 41 43 45 46 47 48 48 48 48 47 45 43 42 40
23 23 22 22 23 23 24 26 26 26 26 28 29 30 32 32 33 33 33 33 33 34 36 37 36 36 36 37 39 41 44 45 46 47 48 48 48 48 49 48 46 44 42 39
21 22 22 22 22 23 24 26 27 28 28 29 31 33 33 34 35 35 35 34 34 35 36 38 39 39 39 41 43 44 45 45 46 46 47 47 47 48 48 46 43 41 39 38
19 20 21 21 22 23 24 25 27 28 29 29 30 33 35 35 37 38 39 40 40 41 42 43 44 45 47 48 50 51 49 47 45 44 44 44 45 45 45 42 39 38 36 34
14 16 18 19 21 22 21 22 23 24 24 26 26 30 33 34 37 40 44 45 46 48 50 51 52 53 53 54 55 55 54 54 52 48 43 43 43 42 40 36 34 34 33 33
9 11 13 15 16 18 19 20 22 22 22 23 23 25 24 24 28 33 38 43 47 50 53 56 58 59 60 60 60 59 58 57 54 53 48 43 42 40 37 35 35 34 34 34
9 11 13 13 15 15 17 19 21 22 21 19 18 19 16 18 22 25 29 33 37 42 47 51 55 58 60 61 62 61 61 59 57 53 49 45 43 41 39 37 36 36 36 36
11 12 13 13 13 14 13 14 16 17 15 14 12 12 14 20 23 24 27 29 32 36 40 46 51 55 59 61 62 62 61 59 56 53 50 44 42 41 40 38 38 38 38 39
8 8 8 9 11 13 14 15 17 18 20 20 17 16 20 24 25 26 29 31 33 35 37 40 44 48 53 56 58 60 61 59 55 52 49 46 41 38 38 37 37 38 39 41
8 8 9 12 14 16 17 18 19 21 23 25 25 19 24 27 28 31 33 35 36 38 40 43 46 48 50 51 51 49 49 51 49 46 43 41 39 36 34 34 34 36 37 37
12 13 14 16 19 20 22 22 23 25 26 27 30 26 27 31 31 33 34 36 38 40 42 45 46 46 45 43 40 36 34 36 37 37 36 35 34 33 31 30 31 32 32 31
19 20 21 22 23 25 26 26 28 29 30 30 31 29 30 33 33 34 36 37 39 40 41 43 42 40 37 32 29 27 28 29 31 31 30 30 29 28 27 28 29 29 30 30
25 25 26 27 28 30 31 31 32 34 34 35 33 32 30 32 33 34 35 37 38 39 39 40 38 35 29 25 24 25 25 27 28 29 30 29 28 27 27 28 29 29 29 29
27 28 28 29 29 31 32 32 35 37 37 38 35 34 32 32 31 31 33 35 36 36 36 36 33 28 23 20 19 20 22 22 23 24 26 26 25 26 27 27 28 28 28 29
26 27 27 27 27 30 30 30 34 37 37 37 37 34 33 31 30 30 30 32 34 33 31 30 27 22 17 16 15 15 17 17 18 20 22 23 25 25 26 26 26 27 29 29
24 25 26 25 26 28 27 27 31 33 34 35 35 33 32 30 29 29 28 29 31 30 27 25 23 20 16 13 12 13 14 15 17 18 20 22 24 25 25 26 26 27 28 28
23 25 27 27 27 27 26 28 31 33 32 31 33 33 32 30 28 28 26 27 27 26 23 21 19 17 15 12 11 11 13 14 15 16 18 20 22 23 24 25 27 28 28 28
24 26 28 30 31 28 23 27 32 33 29 28 33 33 32 31 29 28 26 24 24 23 21 18 17 15 13 11 9 9 9 11 13 14 17 19 20 22 24 25 26 26 25 24
26 28 29 31 32 30 28 28 30 31 28 28 32 33 33 33 31 28 25 22 21 20 18 15 14 13 12 11 9 8 9 10 11 13 15 18 20 21 21 21 19 18 17 16
26 28 29 31 32 31 31 30 30 31 31 30 30 30 32 34 33 31 26 21 19 18 16 14 12 11 10 8 8 8 8 9 11 12 14 15 16 16 16 15 15 14 13 12
28 31 33 33 33 32 32 32 33 33 32 31 30 30 30 29 31 31 27 22 18 16 15 13 11 10 8 7 6 6 7 7 8 9 9 9 8 7 7 8 9 9 9 10
29 34 36 36 35 35 35 35 35 35 34 32 31 30 29 28 28 30 28 23 19 17 15 13 12 10 9 8 7 7 7 8 8 8 7 6 4 3 4 5 7 7 8 9
33 36 36 35 35 36 37 37 36 36 36 34 32 31 29 28 27 29 29 26 22 20 18 16 15 14 13 12 11 10 10 9 9 9 8 6 5 5 5 6 7 8 9 11
39 40 40 38 36 36 36 37 38 38 37 35 34 32 30 29 27 28 29 28 25 23 21 20 18 17 16 15 14 13 12 11 11 10 9 9 8 8 8 9 10 11 12 13
42 42 43 41 39 37 36 37 38 38 37 35 34 32 30 29 28 28 29 29 27 26 24 23 22 20 18 17 16 16 15 13 12 12 12 12 12 12 12 13 13 14 14 14
Wind_Direction
248 247 245 247 249 250 250 249 248 247 248 251 252 253 256 259 261 261 261 260 260 259 256 256 255 254 255 257 260 264 266 266 265 264 264 265 266 267 269 271 273 277 280 281
253 253 253 254 255 259 261 261 257 255 256 257 258 260 262 263 263 263 262 261 261 261 261 261 261 262 263 264 266 270 271 268 265 262 261 260 261 263 265 266 269 273 277 279
254 256 256 255 255 258 260 263 263 262 262 264 266 266 267 268 269 269 267 266 265 265 264 265 265 266 268 269 270 271 272 269 264 260 259 258 260 261 262 261 265 269 274 277
254 255 256 256 257 258 261 263 264 263 261 260 262 264 264 267 268 269 269 268 267 265 263 265 268 270 272 273 275 274 273 268 263 258 258 259 259 259 259 260 262 266 271 275
250 251 252 255 258 260 263 266 269 269 267 263 260 261 262 261 262 265 267 267 268 267 266 266 268 270 272 274 275 277 277 273 268 259 256 256 258 259 260 262 264 267 271 274
248 249 251 253 257 260 264 267 270 272 272 269 266 264 263 261 261 261 262 265 267 269 270 271 271 272 273 274 274 275 277 277 276 271 265 258 256 258 259 264 267 270 273 273
257 259 258 259 262 266 269 273 276 277 276 278 275 273 277 277 272 269 267 268 270 272 273 273 273 273 273 273 273 274 274 276 277 277 274 269 263 262 261 263 264 266 267 269
296 290 282 278 277 280 285 287 288 289 289 287 283 286 295 290 285 283 281 280 279 277 276 275 274 273 273 272 272 272 272 273 275 276 275 273 268 263 260 259 258 260 263 268
292 287 283 280 283 288 295 298 301 302 304 302 299 300 300 294 296 299 299 297 293 290 285 281 279 277 275 273 271 270 269 270 272 274 274 275 270 264 259 257 256 258 263 269
306 300 291 289 288 294 300 305 305 305 306 304 299 299 298 297 305 312 314 311 308 303 297 292 287 285 283 280 276 272 268 267 268 270 272 274 272 266 257 255 256 260 266 271
294 290 288 290 290 294 296 298 298 299 302 302 302 304 301 304 312 317 319 318 315 311 305 300 296 291 286 282 278 274 269 265 264 266 267 266 267 261 256 254 257 262 267 271
292 292 291 292 294 294 293 293 294 295 297 298 300 306 303 305 311 315 318 319 317 314 309 306 303 296 290 282 274 266 260 256 257 258 260 259 256 252 252 254 259 263 266 270
296 295 294 294 294 292 290 291 292 293 293 294 296 302 302 303 308 313 318 321 319 316 313 311 308 301 291 277 261 247 241 240 241 242 244 244 245 245 249 254 259 263 268 271
295 295 296 297 296 293 291 291 291 290 290 290 292 294 295 297 304 311 317 321 321 318 317 316 313 306 289 265 248 235 232 232 232 230 232 235 239 244 249 256 261 266 268 268
297 297 297 297 295 291 289 291 289 286 285 285 287 289 292 293 300 308 316 321 321 320 319 320 319 313 291 265 253 238 235 228 226 227 232 234 239 244 250 255 261 264 265 267
303 303 302 302 300 296 299 298 292 286 282 282 282 285 286 291 298 307 316 321 322 322 320 322 323 320 302 275 259 248 239 236 232 233 238 241 245 249 253 257 261 264 267 269
310 308 306 309 307 305 313 306 296 292 288 284 282 282 282 286 294 303 312 319 323 323 320 322 323 323 316 292 268 252 247 244 241 244 247 249 252 255 257 260 263 266 269 272
313 311 311 312 310 312 318 310 304 298 296 290 282 279 281 284 289 297 306 315 321 322 318 319 321 321 317 303 281 262 253 247 246 250 254 257 258 260 262 264 267 270 272 273
313 312 312 313 313 317 323 314 307 306 304 292 283 280 280 281 284 290 298 307 316 321 318 314 315 317 315 310 297 279 264 257 256 258 261 262 264 265 266 267 268 269 271 273
313 314 314 315 317 322 324 314 312 311 312 294 287 284 280 278 279 281 288 296 306 315 319 316 311 308 308 306 301 291 281 275 273 272 272 271 270 270 270 269 268 269 272 275
309 310 310 311 315 321 319 317 315 313 312 306 299 291 285 276 276 275 276 282 292 303 312 316 314 309 307 309 309 305 299 294 290 287 284 281 277 273 269 265 263 264 264 266
311 309 309 311 315 316 314 314 313 312 310 309 305 296 291 284 275 270 268 269 275 285 295 304 309 310 311 313 318 319 319 318 314 308 303 298 289 276 260 253 252 253 256 261
306 305 309 312 314 311 310 309 310 309 309 308 306 302 293 288 278 268 261 259 261 268 276 284 292 295 298 302 305 310 315 320 322 320 316 311 297 266 241 238 242 247 254 263
305 307 308 308 307 305 305 305 305 304 305 306 306 304 298 292 279 266 259 254 254 258 264 270 276 280 282 286 289 291 297 306 313 317 316 308 290 266 252 250 253 259 266 273
309 313 315 314 311 307 305 304 303 303 303 303 303 302 299 294 282 267 258 253 251 253 258 263 269 273 276 279 282 285 289 295 300 304 303 297 286 274 267 265 266 270 274 276
308 311 312 313 311 308 305 301 300 300 301 301 300 299 296 293 285 268 256 251 250 251 254 259 264 267 270 273 276 280 285 290 294 296 294 290 285 280 276 274 275 276 278 281
Height
5857 5859 5859 5860 5861 5862 5863 5864 5866 5867 5867 5868 5868 5869 5870 5872 5874 5875 5875 5875 5875 5875 5875 5875 5876 5876 5876 5876 5875 5874 5873 5872 5870 5870 5869 5867 5866 5866 5866 5866 5865 5865 5865 5864
5854 5855 5856 5857 5857 5858 5859 5860 5861 5861 5861 5862 5862 5862 5863 5865 5866 5866 5867 5867 5867 5867 5867 5867 5867 5868 5868 5868 5867 5866 5864 5862 5860 5858 5857 5856 5855 5855 5855 5855 5855 5854 5854 5855
5849 5850 5851 5852 5852 5853 5853 5854 5854 5855 5856 5855 5856 5857 5857 5857 5858 5858 5858 5859 5859 5859 5859 5858 5856 5856 5856 5856 5856 5855 5853 5851 5848 5847 5845 5844 5844 5844 5843 5843 5843 5844 5844 5845
5845 5845 5846 5847 5847 5847 5847 5847 5847 5848 5849 5849 5850 5849 5850 5850 5850 5850 5850 5850 5850 5850 5850 5850 5848 5847 5847 5846 5845 5843 5841 5839 5836 5834 5833 5832 5831 5831 5831 5831 5832 5834 5834 5835
5840 5841 5841 5842 5842 5842 5842 5842 5841 5841 5841 5842 5842 5842 5843 5843 5842 5841 5841 5840 5840 5840 5840 5840 5839 5838 5837 5836 5835 5832 5828 5826 5824 5821 5820 5820 5820 5819 5820 5821 5823 5824 5826 5826
5837 5837 5838 5838 5838 5838 5838 5837 5836 5835 5835 5835 5835 5834 5834 5834 5834 5833 5832 5831 5830 5829 5828 5827 5827 5826 5825 5824 5822 5820 5818 5815 5812 5809 5806 5808 5809 5809 5811 5812 5814 5816 5817 5818
5835 5835 5835 5835 5835 5835 5835 5834 5832 5831 5830 5830 5829 5828 5829 5828 5827 5825 5824 5823 5821 5819 5817 5815 5814 5813 5812 5811 5809 5807 5806 5804 5801 5800 5799 5798 5799 5800 5801 5803 5805 5806 5807 5808
5834 5834 5834 5833 5833 5832 5831 5830 5829 5827 5826 5825 5824 5823 5825 5822 5820 5818 5816 5814 5812 5809 5806 5803 5801 5798 5797 5796 5795 5794 5793 5792 5791 5791 5790 5790 5789 5790 5791 5793 5794 5796 5798 5798
5832 5832 5831 5830 5830 5829 5828 5827 5825 5823 5821 5820 5820 5820 5820 5816 5814 5812 5809 5806 5802 5799 5795 5790 5786 5783 5780 5779 5778 5778 5778 5778 5779 5780 5780 5779 5778 5778 5780 5782 5785 5787 5788 5788
5830 5830 5828 5828 5827 5826 5825 5823 5821 5819 5816 5815 5816 5815 5813 5809 5807 5804 5800 5796 5791 5787 5782 5778 5773 5768 5764 5761 5759 5760 5762 5764 5766 5768 5768 5769 5769 5768 5770 5772 5775 5777 5778 5778
5827 5827 5826 5824 5823 5822 5821 5819 5817 5814 5812 5809 5807 5811 5806 5801 5798 5795 5791 5785 5780 5775 5770 5764 5758 5753 5748 5745 5743 5743 5744 5748 5752 5755 5757 5758 5759 5760 5761 5764 5765 5767 5768 5769
5823 5823 5822 5820 5819 5817 5815 5813 5811 5809 5807 5803 5799 5803 5797 5793 5790 5786 5782 5776 5770 5764 5758 5751 5743 5737 5732 5729 5729 5730 5732 5735 5740 5743 5746 5747 5749 5751 5753 5755 5757 5758 5759 5760
5819 5818 5817 5816 5816 5812 5809 5807 5805 5802 5799 5796 5792 5795 5789 5784 5781 5778 5773 5768 5761 5755 5748 5740 5731 5724 5719 5717 5717 5720 5722 5725 5729 5733 5736 5737 5739 5742 5744 5747 5749 5750 5751 5751
5814 5812 5811 5810 5807 5804 5802 5800 5797 5794 5790 5787 5786 5784 5782 5777 5774 5770 5765 5759 5753 5746 5739 5731 5723 5715 5710 5708 5708 5710 5713 5717 5720 5723 5727 5729 5731 5734 5737 5739 5741 5741 5742 5743
5807 5805 5804 5802 5799 5795 5793 5792 5788 5784 5782 5779 5777 5775 5773 5769 5766 5763 5759 5753 5746 5739 5732 5724 5717 5710 5705 5703 5702 5704 5707 5710 5712 5715 5719 5721 5724 5727 5729 5731 5733 5734 5734 5735
5801 5798 5796 5794 5792 5787 5785 5784 5778 5774 5771 5769 5767 5766 5763 5760 5758 5755 5752 5747 5740 5733 5726 5720 5713 5708 5704 5702 5701 5702 5704 5706 5708 5711 5713 5716 5719 5721 5723 5724 5725 5726 5726 5727
5797 5793 5790 5788 5784 5780 5778 5775 5769 5764 5761 5760 5757 5757 5754 5753 5751 5748 5746 5741 5735 5729 5722 5717 5712 5707 5703 5701 5700 5701 5702 5704 5705 5707 5709 5711 5713 5715 5716 5717 5718 5718 5718 5718
5793 5789 5785 5782 5779 5775 5775 5766 5761 5756 5755 5752 5749 5747 5746 5745 5744 5742 5740 5736 5731 5725 5719 5714 5710 5706 5703 5701 5699 5699 5700 5701 5702 5703 5705 5706 5707 5709 5710 5710 5711 5711 5711 5711
5788 5784 5780 5776 5772 5770 5769 5762 5755 5750 5749 5746 5740 5739 5738 5737 5736 5735 5733 5731 5727 5722 5716 5712 5708 5705 5703 5700 5699 5698 5698 5699 5699 5700 5700 5701 5702 5702 5703 5703 5703 5703 5703 5703
5783 5779 5775 5770 5765 5762 5763 5757 5750 5746 5743 5740 5734 5732 5731 5729 5729 5728 5727 5725 5722 5718 5714 5709 5706 5703 5701 5699 5698 5697 5696 5696 5696 5696 5696 5696 5696 5696 5696 5696 5696 5696 5697 5698
5778 5774 5770 5764 5759 5757 5754 5749 5745 5742 5739 5733 5729 5726 5723 5721 5720 5720 5719 5719 5717 5714 5711 5707 5704 5701 5699 5697 5696 5695 5694 5694 5693 5692 5692 5691 5690 5690 5690 5690 5690 5691 5692 5693
5772 5767 5763 5758 5754 5752 5746 5741 5738 5734 5730 5726 5722 5718 5715 5713 5711 5710 5711 5711 5711 5709 5707 5704 5702 5699 5697 5695 5694 5693 5692 5692 5691 5690 5688 5687 5686 5686 5686 5686 5687 5688 5689 5690
5766 5761 5755 5752 5750 5744 5738 5732 5728 5724 5721 5718 5714 5711 5708 5705 5703 5702 5702 5703 5703 5703 5702 5701 5699 5697 5696 5694 5693 5692 5691 5690 5689 5688 5687 5685 5684 5684 5684 5684 5685 5685 5686 5686
5759 5753 5749 5744 5741 5736 5730 5725 5720 5715 5710 5708 5705 5702 5699 5697 5694 5693 5693 5694 5695 5696 5696 5696 5695 5694 5693 5692 5691 5690 5689 5688 5688 5687 5685 5684 5683 5683 5683 5683 5683 5683 5683 5683
5750 5745 5741 5736 5732 5728 5723 5717 5711 5706 5702 5698 5695 5693 5690 5688 5686 5685 5684 5685 5687 5688 5689 5689 5689 5688 5688 5687 5687 5686 5686 5685 5685 5684 5683 5683 5682 5681 5681 5681 5681 5681 5681 5680
5741 5736 5731 5726 5722 5717 5713 5709 5703 5698 5694 5690 5686 5684 5682 5679 5677 5676 5675 5676 5678 5679 5681 5681 5681 5681 5681 5681 5682 5681 5681 5681 5680 5680 5680 5679 5679 5678 5678 5678 5678 5677 5677 5676